Year,Month,Day,Hour,Minute,Value (Times are PST for temperature in C)
2008,12,23,00,00,-6.40
2008,12,23,00,01,-6.40
2008,12,23,00,02,-6.30
2008,12,23,00,03,-6.30
2008,12,23,00,04,-6.30
2008,12,23,00,05,-6.30
2008,12,23,00,06,-6.20
2008,12,23,00,07,-6.10
2008,12,23,00,08,-6.00
2008,12,23,00,09,-5.90
2008,12,23,00,10,-5.80
2008,12,23,00,11,-5.80
2008,12,23,00,12,-5.80
2008,12,23,00,13,-5.70
2008,12,23,00,14,-5.70
2008,12,23,00,15,-5.70
2008,12,23,00,16,-5.70
2008,12,23,00,17,-5.60
2008,12,23,00,18,-5.50
2008,12,23,00,19,-5.50
2008,12,23,00,20,-5.40
2008,12,23,00,21,-5.40
2008,12,23,00,22,-5.40
2008,12,23,00,23,-5.40
2008,12,23,00,24,-5.40
2008,12,23,00,25,-5.40
2008,12,23,00,26,-5.40
2008,12,23,00,27,-5.40
2008,12,23,00,28,-5.50
2008,12,23,00,29,-5.50
2008,12,23,00,30,-5.50
2008,12,23,00,31,-5.50
2008,12,23,00,32,-5.40
2008,12,23,00,33,-5.30
2008,12,23,00,34,-5.20
2008,12,23,00,35,-5.10
2008,12,23,00,36,-5.00
2008,12,23,00,37,-4.80
2008,12,23,00,38,-4.80
2008,12,23,00,39,-4.80
2008,12,23,00,40,-4.80
2008,12,23,00,41,-4.80
2008,12,23,00,42,-4.80
2008,12,23,00,43,-4.80
2008,12,23,00,44,-4.90
2008,12,23,00,45,-4.90
2008,12,23,00,46,-4.90
2008,12,23,00,47,-4.90
2008,12,23,00,48,-5.00
2008,12,23,00,49,-5.00
2008,12,23,00,50,-5.00
2008,12,23,00,51,-5.00
2008,12,23,00,52,-4.90
2008,12,23,00,53,-4.90
2008,12,23,00,54,-4.80
2008,12,23,00,55,-4.80
2008,12,23,00,56,-4.80
2008,12,23,00,57,-4.80
2008,12,23,00,58,-4.80
2008,12,23,00,59,-4.70
2008,12,23,01,00,-4.70
2008,12,23,01,01,-4.70
2008,12,23,01,02,-4.70
2008,12,23,01,03,-4.70
2008,12,23,01,04,-4.60
2008,12,23,01,05,-4.60
2008,12,23,01,06,-4.60
2008,12,23,01,07,-4.50
2008,12,23,01,08,-4.50
2008,12,23,01,09,-4.40
2008,12,23,01,10,-4.40
2008,12,23,01,11,-4.30
2008,12,23,01,12,-4.30
2008,12,23,01,13,-4.30
2008,12,23,01,14,-4.20
2008,12,23,01,15,-4.20
2008,12,23,01,16,-4.20
2008,12,23,01,17,-4.20
2008,12,23,01,18,-4.20
2008,12,23,01,19,-4.20
2008,12,23,01,20,-4.20
2008,12,23,01,21,-4.20
2008,12,23,01,22,-4.30
2008,12,23,01,23,-4.30
2008,12,23,01,24,-4.30
2008,12,23,01,25,-4.30
2008,12,23,01,26,-4.30
2008,12,23,01,27,-4.30
2008,12,23,01,28,-4.30
2008,12,23,01,29,-4.30
2008,12,23,01,30,-4.30
2008,12,23,01,31,-4.30
2008,12,23,01,32,-4.30
2008,12,23,01,33,-4.30
2008,12,23,01,34,-4.30
2008,12,23,01,35,-4.30
2008,12,23,01,36,-4.30
2008,12,23,01,37,-4.30
2008,12,23,01,38,-4.30
2008,12,23,01,39,-4.30
2008,12,23,01,40,-4.30
2008,12,23,01,41,-4.30
2008,12,23,01,42,-4.30
2008,12,23,01,43,-4.20
2008,12,23,01,44,-4.20
2008,12,23,01,45,-4.20
2008,12,23,01,46,-4.20
2008,12,23,01,47,-4.20
2008,12,23,01,48,-4.20
2008,12,23,01,49,-4.20
2008,12,23,01,50,-4.10
2008,12,23,01,51,-4.10
2008,12,23,01,52,-4.10
2008,12,23,01,53,-4.10
2008,12,23,01,54,-4.00
2008,12,23,01,55,-4.00
2008,12,23,01,56,-4.00
2008,12,23,01,57,-4.00
2008,12,23,01,58,-3.90
2008,12,23,01,59,-3.90
2008,12,23,02,00,-3.90
2008,12,23,02,01,-3.90
2008,12,23,02,02,-3.90
2008,12,23,02,03,-3.90
2008,12,23,02,04,-3.90
2008,12,23,02,05,-3.90
2008,12,23,02,06,-3.90
2008,12,23,02,07,-3.90
2008,12,23,02,08,-3.90
2008,12,23,02,09,-3.90
2008,12,23,02,10,-3.90
2008,12,23,02,11,-3.80
2008,12,23,02,12,-3.80
2008,12,23,02,13,-3.70
2008,12,23,02,14,-3.70
2008,12,23,02,15,-3.60
2008,12,23,02,16,-3.60
2008,12,23,02,17,-3.50
2008,12,23,02,18,-3.50
2008,12,23,02,19,-3.40
2008,12,23,02,20,-3.40
2008,12,23,02,21,-3.30
2008,12,23,02,22,-3.30
2008,12,23,02,23,-3.30
2008,12,23,02,24,-3.30
2008,12,23,02,25,-3.30
2008,12,23,02,26,-3.30
2008,12,23,02,27,-3.40
2008,12,23,02,28,-3.40
2008,12,23,02,29,-3.40
2008,12,23,02,30,-3.50
2008,12,23,02,31,-3.50
2008,12,23,02,32,-3.50
2008,12,23,02,33,-3.60
2008,12,23,02,34,-3.60
2008,12,23,02,35,-3.60
2008,12,23,02,36,-3.70
2008,12,23,02,37,-3.70
2008,12,23,02,38,-3.70
2008,12,23,02,39,-3.70
2008,12,23,02,40,-3.60
2008,12,23,02,41,-3.60
2008,12,23,02,42,-3.50
2008,12,23,02,43,-3.30
2008,12,23,02,44,-3.30
2008,12,23,02,45,-3.20
2008,12,23,02,46,-3.20
2008,12,23,02,47,-3.20
2008,12,23,02,48,-3.20
2008,12,23,02,49,-3.10
2008,12,23,02,50,-3.10
2008,12,23,02,51,-3.10
2008,12,23,02,52,-3.10
2008,12,23,02,53,-3.10
2008,12,23,02,54,-3.10
2008,12,23,02,55,-3.10
2008,12,23,02,56,-3.00
2008,12,23,02,57,-3.00
2008,12,23,02,58,-3.00
2008,12,23,02,59,-3.00
2008,12,23,03,00,-3.00
2008,12,23,03,01,-3.00
2008,12,23,03,02,-2.90
2008,12,23,03,03,-2.90
2008,12,23,03,04,-2.90
2008,12,23,03,05,-2.90
2008,12,23,03,06,-2.90
2008,12,23,03,07,-2.90
2008,12,23,03,08,-2.90
2008,12,23,03,09,-2.90
2008,12,23,03,10,-2.90
2008,12,23,03,11,-2.90
2008,12,23,03,12,-2.90
2008,12,23,03,13,-3.00
2008,12,23,03,14,-3.00
2008,12,23,03,15,-3.00
2008,12,23,03,16,-3.10
2008,12,23,03,17,-3.20
2008,12,23,03,18,-3.20
2008,12,23,03,19,-3.30
2008,12,23,03,20,-3.40
2008,12,23,03,21,-3.40
2008,12,23,03,22,-3.50
2008,12,23,03,23,-3.50
2008,12,23,03,24,-3.60
2008,12,23,03,25,-3.60
2008,12,23,03,26,-3.70
2008,12,23,03,27,-3.80
2008,12,23,03,28,-3.80
2008,12,23,03,29,-3.80
2008,12,23,03,30,-3.90
2008,12,23,03,31,-3.90
2008,12,23,03,32,-3.90
2008,12,23,03,33,-4.00
2008,12,23,03,34,-4.00
2008,12,23,03,35,-3.90
2008,12,23,03,36,-3.90
2008,12,23,03,37,-3.90
2008,12,23,03,38,-3.90
2008,12,23,03,39,-3.90
2008,12,23,03,40,-4.00
2008,12,23,03,41,-4.00
2008,12,23,03,42,-4.10
2008,12,23,03,43,-4.20
2008,12,23,03,44,-4.20
2008,12,23,03,45,-4.30
2008,12,23,03,46,-4.30
2008,12,23,03,47,-4.30
2008,12,23,03,48,-4.40
2008,12,23,03,49,-4.40
2008,12,23,03,50,-4.40
2008,12,23,03,51,-4.50
2008,12,23,03,52,-4.50
2008,12,23,03,53,-4.50
2008,12,23,03,54,-4.50
2008,12,23,03,55,-4.50
2008,12,23,03,56,-4.50
2008,12,23,03,57,-4.40
2008,12,23,03,58,-4.40
2008,12,23,03,59,-4.40
2008,12,23,04,00,-4.40
2008,12,23,04,01,-4.40
2008,12,23,04,02,-4.50
2008,12,23,04,03,-4.50
2008,12,23,04,04,-4.50
2008,12,23,04,05,-4.60
2008,12,23,04,06,-4.70
2008,12,23,04,09,-4.80
2008,12,23,04,11,-4.90
2008,12,23,04,13,-5.00
2008,12,23,04,14,-5.10
2008,12,23,04,15,-5.10
2008,12,23,04,16,-5.10
2008,12,23,04,17,-5.20
2008,12,23,04,18,-5.20
2008,12,23,04,19,-5.20
2008,12,23,04,20,-5.20
2008,12,23,04,21,-5.20
2008,12,23,04,22,-5.20
2008,12,23,04,23,-5.20
2008,12,23,04,24,-5.20
2008,12,23,04,25,-5.30
2008,12,23,04,26,-5.30
2008,12,23,04,27,-5.30
2008,12,23,04,28,-5.30
2008,12,23,04,29,-5.40
2008,12,23,04,30,-5.40
2008,12,23,04,31,-5.40
2008,12,23,04,32,-5.50
2008,12,23,04,33,-5.50
2008,12,23,04,34,-5.50
2008,12,23,04,35,-5.50
2008,12,23,04,36,-5.50
2008,12,23,04,37,-5.50
2008,12,23,04,38,-5.40
2008,12,23,04,39,-5.40
2008,12,23,04,40,-5.40
2008,12,23,04,41,-5.50
2008,12,23,04,42,-5.50
2008,12,23,04,43,-5.50
2008,12,23,04,44,-5.60
2008,12,23,04,45,-5.60
2008,12,23,04,46,-5.60
2008,12,23,04,47,-5.60
2008,12,23,04,48,-5.60
2008,12,23,04,49,-5.50
2008,12,23,04,50,-5.50
2008,12,23,04,51,-5.50
2008,12,23,04,52,-5.60
2008,12,23,04,53,-5.60
2008,12,23,04,54,-5.60
2008,12,23,04,55,-5.60
2008,12,23,04,56,-5.50
2008,12,23,04,57,-5.50
2008,12,23,04,58,-5.50
2008,12,23,04,59,-5.50
2008,12,23,05,00,-5.50
2008,12,23,05,01,-5.60
2008,12,23,05,02,-5.60
2008,12,23,05,03,-5.60
2008,12,23,05,04,-5.70
2008,12,23,05,05,-5.70
2008,12,23,05,06,-5.70
2008,12,23,05,07,-5.70
2008,12,23,05,08,-5.70
2008,12,23,05,09,-5.70
2008,12,23,05,10,-5.70
2008,12,23,05,11,-5.70
2008,12,23,05,12,-5.70
2008,12,23,05,13,-5.70
2008,12,23,05,14,-5.70
2008,12,23,05,15,-5.70
2008,12,23,05,16,-5.70
2008,12,23,05,17,-5.70
2008,12,23,05,18,-5.70
2008,12,23,05,19,-5.70
2008,12,23,05,20,-5.80
2008,12,23,05,21,-5.80
2008,12,23,05,22,-5.80
2008,12,23,05,23,-5.90
2008,12,23,05,24,-6.00
2008,12,23,05,25,-6.00
2008,12,23,05,26,-6.10
2008,12,23,05,27,-6.10
2008,12,23,05,28,-6.20
2008,12,23,05,29,-6.20
2008,12,23,05,30,-6.20
2008,12,23,05,31,-6.20
2008,12,23,05,32,-6.20
2008,12,23,05,33,-6.20
2008,12,23,05,34,-6.20
2008,12,23,05,35,-6.20
2008,12,23,05,36,-6.20
2008,12,23,05,37,-6.20
2008,12,23,05,38,-6.20
2008,12,23,05,39,-6.20
2008,12,23,05,40,-6.20
2008,12,23,05,41,-6.20
2008,12,23,05,42,-6.20
2008,12,23,05,43,-6.20
2008,12,23,05,44,-6.30
2008,12,23,05,45,-6.30
2008,12,23,05,46,-6.30
2008,12,23,05,47,-6.30
2008,12,23,05,48,-6.30
2008,12,23,05,49,-6.30
2008,12,23,05,50,-6.30
2008,12,23,05,51,-6.30
2008,12,23,05,52,-6.30
2008,12,23,05,53,-6.30
2008,12,23,05,54,-6.30
2008,12,23,05,55,-6.30
2008,12,23,05,56,-6.40
2008,12,23,05,57,-6.40
2008,12,23,05,58,-6.50
2008,12,23,05,59,-6.60
2008,12,23,06,00,-6.60
2008,12,23,06,01,-6.60
2008,12,23,06,02,-6.60
2008,12,23,06,03,-6.60
2008,12,23,06,04,-6.50
2008,12,23,06,05,-6.50
2008,12,23,06,06,-6.40
2008,12,23,06,07,-6.40
2008,12,23,06,08,-6.40
2008,12,23,06,09,-6.40
2008,12,23,06,10,-6.40
2008,12,23,06,11,-6.40
2008,12,23,06,12,-6.40
2008,12,23,06,13,-6.50
2008,12,23,06,14,-6.50
2008,12,23,06,15,-6.60
2008,12,23,06,16,-6.60
2008,12,23,06,17,-6.60
2008,12,23,06,18,-6.60
2008,12,23,06,19,-6.70
2008,12,23,06,20,-6.70
2008,12,23,06,21,-6.70
2008,12,23,06,22,-6.80
2008,12,23,06,23,-6.80
2008,12,23,06,24,-6.80
2008,12,23,06,25,-6.80
2008,12,23,06,26,-6.80
2008,12,23,06,27,-6.80
2008,12,23,06,28,-6.70
2008,12,23,06,29,-6.70
2008,12,23,06,30,-6.60
2008,12,23,06,31,-6.60
2008,12,23,06,32,-6.60
2008,12,23,06,33,-6.60
2008,12,23,06,34,-6.60
2008,12,23,06,35,-6.60
2008,12,23,06,36,-6.70
2008,12,23,06,37,-6.70
2008,12,23,06,38,-6.70
2008,12,23,06,39,-6.80
2008,12,23,06,40,-6.80
2008,12,23,06,41,-6.80
2008,12,23,06,42,-6.80
2008,12,23,06,43,-6.80
2008,12,23,06,44,-6.80
2008,12,23,06,45,-6.80
2008,12,23,06,46,-6.80
2008,12,23,06,47,-6.80
2008,12,23,06,48,-6.80
2008,12,23,06,49,-6.80
2008,12,23,06,50,-6.80
2008,12,23,06,51,-6.80
2008,12,23,06,52,-6.80
2008,12,23,06,53,-6.80
2008,12,23,06,54,-6.80
2008,12,23,06,55,-6.80
2008,12,23,06,56,-6.80
2008,12,23,06,57,-6.80
2008,12,23,06,58,-6.90
2008,12,23,06,59,-6.90
2008,12,23,07,00,-6.90
2008,12,23,07,01,-6.90
2008,12,23,07,02,-6.90
2008,12,23,07,03,-7.00
2008,12,23,07,04,-7.00
2008,12,23,07,05,-7.00
2008,12,23,07,06,-7.00
2008,12,23,07,07,-7.00
2008,12,23,07,08,-7.00
2008,12,23,07,09,-7.00
2008,12,23,07,10,-7.00
2008,12,23,07,11,-7.00
2008,12,23,07,12,-7.00
2008,12,23,07,13,-7.00
2008,12,23,07,14,-7.00
2008,12,23,07,15,-6.90
2008,12,23,07,16,-6.90
2008,12,23,07,17,-6.80
2008,12,23,07,18,-6.80
2008,12,23,07,19,-6.80
2008,12,23,07,20,-6.80
2008,12,23,07,21,-6.90
2008,12,23,07,22,-7.00
2008,12,23,07,23,-7.10
2008,12,23,07,24,-7.20
2008,12,23,07,25,-7.20
2008,12,23,07,26,-7.30
2008,12,23,07,27,-7.40
2008,12,23,07,28,-7.40
2008,12,23,07,29,-7.40
2008,12,23,07,30,-7.40
2008,12,23,07,31,-7.40
2008,12,23,07,32,-7.40
2008,12,23,07,33,-7.40
2008,12,23,07,34,-7.30
2008,12,23,07,35,-7.30
2008,12,23,07,36,-7.30
2008,12,23,07,37,-7.20
2008,12,23,07,38,-7.20
2008,12,23,07,39,-7.10
2008,12,23,07,40,-7.10
2008,12,23,07,41,-7.10
2008,12,23,07,42,-7.10
2008,12,23,07,43,-7.10
2008,12,23,07,44,-7.20
2008,12,23,07,45,-7.30
2008,12,23,07,46,-7.40
2008,12,23,07,47,-7.40
2008,12,23,07,48,-7.40
2008,12,23,07,49,-7.40
2008,12,23,07,50,-7.40
2008,12,23,07,51,-7.40
2008,12,23,07,52,-7.40
2008,12,23,07,53,-7.40
2008,12,23,07,54,-7.30
2008,12,23,07,55,-7.30
2008,12,23,07,56,-7.30
2008,12,23,07,57,-7.30
2008,12,23,07,58,-7.30
2008,12,23,07,59,-7.30
2008,12,23,08,00,-7.30
2008,12,23,08,01,-7.30
2008,12,23,08,02,-7.40
2008,12,23,08,03,-7.40
2008,12,23,08,04,-7.40
2008,12,23,08,05,-7.40
2008,12,23,08,06,-7.40
2008,12,23,08,07,-7.30
2008,12,23,08,08,-7.20
2008,12,23,08,09,-7.10
2008,12,23,08,10,-7.00
2008,12,23,08,11,-7.00
2008,12,23,08,12,-6.90
2008,12,23,08,13,-6.80
2008,12,23,08,14,-6.80
2008,12,23,08,15,-6.90
2008,12,23,08,16,-6.90
2008,12,23,08,17,-6.90
2008,12,23,08,18,-6.80
2008,12,23,08,19,-6.90
2008,12,23,08,20,-6.90
2008,12,23,08,21,-6.90
2008,12,23,08,22,-6.90
2008,12,23,08,23,-6.90
2008,12,23,08,24,-6.80
2008,12,23,08,25,-6.80
2008,12,23,08,26,-6.80
2008,12,23,08,27,-6.80
2008,12,23,08,28,-6.80
2008,12,23,08,29,-6.80
2008,12,23,08,30,-6.80
2008,12,23,08,31,-6.80
2008,12,23,08,32,-6.80
2008,12,23,08,33,-6.80
2008,12,23,08,34,-6.80
2008,12,23,08,35,-6.80
2008,12,23,08,36,-6.80
2008,12,23,08,37,-6.80
2008,12,23,08,38,-6.80
2008,12,23,08,39,-6.80
2008,12,23,08,40,-6.80
2008,12,23,08,41,-6.80
2008,12,23,08,42,-6.90
2008,12,23,08,43,-6.90
2008,12,23,08,44,-6.90
2008,12,23,08,45,-6.90
2008,12,23,08,46,-6.80
2008,12,23,08,47,-6.80
2008,12,23,08,48,-6.80
2008,12,23,08,49,-6.80
2008,12,23,08,50,-6.80
2008,12,23,08,51,-6.80
2008,12,23,08,52,-6.80
2008,12,23,08,53,-6.80
2008,12,23,08,54,-6.80
2008,12,23,08,55,-6.80
2008,12,23,08,56,-6.80
2008,12,23,08,57,-6.80
2008,12,23,08,58,-6.70
2008,12,23,08,59,-6.70
2008,12,23,09,00,-6.60
2008,12,23,09,01,-6.60
2008,12,23,09,02,-6.50
2008,12,23,09,03,-6.50
2008,12,23,09,04,-6.40
2008,12,23,09,05,-6.40
2008,12,23,09,06,-6.30
2008,12,23,09,07,-6.30
2008,12,23,09,08,-6.30
2008,12,23,09,09,-6.30
2008,12,23,09,10,-6.30
2008,12,23,09,11,-6.30
2008,12,23,09,12,-6.30
2008,12,23,09,13,-6.40
2008,12,23,09,14,-6.40
2008,12,23,09,15,-6.40
2008,12,23,09,16,-6.40
2008,12,23,09,17,-6.30
2008,12,23,09,18,-6.30
2008,12,23,09,19,-6.20
2008,12,23,09,20,-6.20
2008,12,23,09,21,-6.20
2008,12,23,09,22,-6.20
2008,12,23,09,23,-6.20
2008,12,23,09,24,-6.20
2008,12,23,09,25,-6.10
2008,12,23,09,26,-6.00
2008,12,23,09,27,-6.00
2008,12,23,09,28,-5.90
2008,12,23,09,29,-5.80
2008,12,23,09,30,-5.70
2008,12,23,09,31,-5.70
2008,12,23,09,32,-5.60
2008,12,23,09,33,-5.60
2008,12,23,09,34,-5.50
2008,12,23,09,35,-5.50
2008,12,23,09,36,-5.40
2008,12,23,09,37,-5.40
2008,12,23,09,38,-5.40
2008,12,23,09,39,-5.40
2008,12,23,09,40,-5.40
2008,12,23,09,41,-5.40
2008,12,23,09,42,-5.40
2008,12,23,09,43,-5.40
2008,12,23,09,44,-5.40
2008,12,23,09,45,-5.30
2008,12,23,09,46,-5.30
2008,12,23,09,47,-5.40
2008,12,23,09,48,-5.40
2008,12,23,09,49,-5.50
2008,12,23,09,50,-5.50
2008,12,23,09,51,-5.50
2008,12,23,09,52,-5.50
2008,12,23,09,53,-5.50
2008,12,23,09,54,-5.40
2008,12,23,09,55,-5.40
2008,12,23,09,56,-5.30
2008,12,23,09,57,-5.20
2008,12,23,09,58,-5.10
2008,12,23,09,59,-5.10
2008,12,23,10,00,-5.00
2008,12,23,10,01,-4.90
2008,12,23,10,02,-4.80
2008,12,23,10,03,-4.80
2008,12,23,10,04,-4.80
2008,12,23,10,05,-4.70
2008,12,23,10,06,-4.70
2008,12,23,10,07,-4.60
2008,12,23,10,08,-4.60
2008,12,23,10,09,-4.60
2008,12,23,10,10,-4.60
2008,12,23,10,11,-4.60
2008,12,23,10,12,-4.60
2008,12,23,10,13,-4.60
2008,12,23,10,14,-4.50
2008,12,23,10,15,-4.50
2008,12,23,10,16,-4.50
2008,12,23,10,17,-4.40
2008,12,23,10,18,-4.40
2008,12,23,10,19,-4.40
2008,12,23,10,20,-4.30
2008,12,23,10,21,-4.30
2008,12,23,10,22,-4.30
2008,12,23,10,23,-4.30
2008,12,23,10,24,-4.30
2008,12,23,10,25,-4.20
2008,12,23,10,26,-4.20
2008,12,23,10,27,-4.20
2008,12,23,10,28,-4.10
2008,12,23,10,29,-4.10
2008,12,23,10,30,-4.10
2008,12,23,10,31,-4.10
2008,12,23,10,32,-4.10
2008,12,23,10,33,-4.10
2008,12,23,10,34,-4.20
2008,12,23,10,35,-4.20
2008,12,23,10,36,-4.20
2008,12,23,10,37,-4.30
2008,12,23,10,38,-4.30
2008,12,23,10,39,-4.30
2008,12,23,10,40,-4.40
2008,12,23,10,41,-4.40
2008,12,23,10,42,-4.40
2008,12,23,10,43,-4.40
2008,12,23,10,44,-4.40
2008,12,23,10,45,-4.40
2008,12,23,10,46,-4.40
2008,12,23,10,47,-4.40
2008,12,23,10,48,-4.40
2008,12,23,10,49,-4.40
2008,12,23,10,50,-4.30
2008,12,23,10,51,-4.30
2008,12,23,10,52,-4.20
2008,12,23,10,53,-4.20
2008,12,23,10,54,-4.20
2008,12,23,10,55,-4.20
2008,12,23,10,56,-4.20
2008,12,23,10,57,-4.20
2008,12,23,10,58,-4.20
2008,12,23,10,59,-4.30
2008,12,23,11,00,-4.30
2008,12,23,11,01,-4.20
2008,12,23,11,02,-4.20
2008,12,23,11,03,-4.20
2008,12,23,11,04,-4.10
2008,12,23,11,05,-4.10
2008,12,23,11,06,-4.10
2008,12,23,11,07,-4.10
2008,12,23,11,08,-4.10
2008,12,23,11,09,-4.10
2008,12,23,11,10,-4.20
2008,12,23,11,11,-4.20
2008,12,23,11,12,-4.20
2008,12,23,11,13,-4.20
2008,12,23,11,14,-4.20
2008,12,23,11,15,-4.20
2008,12,23,11,16,-4.20
2008,12,23,11,17,-4.20
2008,12,23,11,18,-4.20
2008,12,23,11,19,-4.10
2008,12,23,11,20,-4.10
2008,12,23,11,21,-4.00
2008,12,23,11,22,-4.00
2008,12,23,11,23,-3.90
2008,12,23,11,24,-3.90
2008,12,23,11,25,-3.90
2008,12,23,11,26,-3.80
2008,12,23,11,27,-3.80
2008,12,23,11,28,-3.80
2008,12,23,11,29,-3.80
2008,12,23,11,30,-3.80
2008,12,23,11,31,-3.80
2008,12,23,11,32,-3.70
2008,12,23,11,33,-3.70
2008,12,23,11,34,-3.80
2008,12,23,11,35,-3.80
2008,12,23,11,36,-3.80
2008,12,23,11,37,-3.80
2008,12,23,11,38,-3.80
2008,12,23,11,39,-3.80
2008,12,23,11,40,-3.80
2008,12,23,11,41,-3.80
2008,12,23,11,42,-3.80
2008,12,23,11,43,-3.80
2008,12,23,11,44,-3.80
2008,12,23,11,45,-3.80
2008,12,23,11,46,-3.80
2008,12,23,11,47,-3.80
2008,12,23,11,48,-3.80
2008,12,23,11,49,-3.80
2008,12,23,11,50,-3.80
2008,12,23,11,51,-3.80
2008,12,23,11,52,-3.80
2008,12,23,11,53,-3.70
2008,12,23,11,54,-3.70
2008,12,23,11,55,-3.70
2008,12,23,11,56,-3.60
2008,12,23,11,57,-3.60
2008,12,23,11,58,-3.50
2008,12,23,11,59,-3.40
2008,12,23,12,00,-3.40
2008,12,23,12,01,-3.30
2008,12,23,12,02,-3.30
2008,12,23,12,03,-3.30
2008,12,23,12,04,-3.30
2008,12,23,12,05,-3.30
2008,12,23,12,06,-3.30
2008,12,23,12,07,-3.40
2008,12,23,12,08,-3.40
2008,12,23,12,09,-3.40
2008,12,23,12,10,-3.40
2008,12,23,12,11,-3.40
2008,12,23,12,12,-3.40
2008,12,23,12,13,-3.40
2008,12,23,12,14,-3.40
2008,12,23,12,15,-3.40
2008,12,23,12,16,-3.40
2008,12,23,12,17,-3.30
2008,12,23,12,18,-3.30
2008,12,23,12,19,-3.30
2008,12,23,12,20,-3.20
2008,12,23,12,21,-3.20
2008,12,23,12,22,-3.20
2008,12,23,12,23,-3.20
2008,12,23,12,24,-3.20
2008,12,23,12,25,-3.10
2008,12,23,12,26,-3.10
2008,12,23,12,27,-3.10
2008,12,23,12,28,-3.10
2008,12,23,12,29,-3.10
2008,12,23,12,30,-3.10
2008,12,23,12,31,-3.10
2008,12,23,12,32,-3.10
2008,12,23,12,33,-3.10
2008,12,23,12,34,-3.10
2008,12,23,12,35,-3.00
2008,12,23,12,36,-3.00
2008,12,23,12,37,-3.00
2008,12,23,12,38,-2.90
2008,12,23,12,39,-2.90
2008,12,23,12,40,-2.90
2008,12,23,12,41,-2.90
2008,12,23,12,42,-2.80
2008,12,23,12,43,-2.80
2008,12,23,12,44,-2.80
2008,12,23,12,45,-2.70
2008,12,23,12,46,-2.70
2008,12,23,12,47,-2.70
2008,12,23,12,48,-2.70
2008,12,23,12,49,-2.60
2008,12,23,12,50,-2.60
2008,12,23,12,51,-2.70
2008,12,23,12,52,-2.70
2008,12,23,12,53,-2.70
2008,12,23,12,54,-2.70
2008,12,23,12,55,-2.70
2008,12,23,12,56,-2.70
2008,12,23,12,57,-2.70
2008,12,23,12,58,-2.70
2008,12,23,12,59,-2.70
2008,12,23,13,00,-2.70
2008,12,23,13,01,-2.60
2008,12,23,13,02,-2.60
2008,12,23,13,03,-2.60
2008,12,23,13,04,-2.60
2008,12,23,13,05,-2.50
2008,12,23,13,06,-2.50
2008,12,23,13,07,-2.40
2008,12,23,13,08,-2.40
2008,12,23,13,09,-2.40
2008,12,23,13,10,-2.30
2008,12,23,13,11,-2.30
2008,12,23,13,12,-2.30
2008,12,23,13,13,-2.30
2008,12,23,13,14,-2.20
2008,12,23,13,15,-2.20
2008,12,23,13,16,-2.20
2008,12,23,13,17,-2.10
2008,12,23,13,18,-2.10
2008,12,23,13,19,-2.10
2008,12,23,13,20,-2.10
2008,12,23,13,21,-2.10
2008,12,23,13,22,-2.10
2008,12,23,13,23,-2.10
2008,12,23,13,24,-2.10
2008,12,23,13,25,-2.10
2008,12,23,13,26,-2.00
2008,12,23,13,27,-2.00
2008,12,23,13,28,-2.00
2008,12,23,13,29,-2.00
2008,12,23,13,30,-1.90
2008,12,23,13,31,-1.90
2008,12,23,13,32,-1.80
2008,12,23,13,33,-1.80
2008,12,23,13,34,-1.80
2008,12,23,13,35,-1.80
2008,12,23,13,36,-1.80
2008,12,23,13,37,-1.80
2008,12,23,13,38,-1.80
2008,12,23,13,39,-1.80
2008,12,23,13,40,-1.80
2008,12,23,13,41,-1.80
2008,12,23,13,42,-1.80
2008,12,23,13,43,-1.80
2008,12,23,13,44,-1.80
2008,12,23,13,45,-1.80
2008,12,23,13,46,-1.80
2008,12,23,13,47,-1.80
2008,12,23,13,48,-1.80
2008,12,23,13,49,-1.70
2008,12,23,13,50,-1.70
2008,12,23,13,51,-1.70
2008,12,23,13,52,-1.60
2008,12,23,13,53,-1.60
2008,12,23,13,54,-1.60
2008,12,23,13,55,-1.60
2008,12,23,13,56,-1.60
2008,12,23,13,57,-1.60
2008,12,23,13,58,-1.50
2008,12,23,13,59,-1.50
2008,12,23,14,00,-1.50
2008,12,23,14,01,-1.50
2008,12,23,14,02,-1.50
2008,12,23,14,03,-1.50
2008,12,23,14,04,-1.50
2008,12,23,14,05,-1.50
2008,12,23,14,06,-1.40
2008,12,23,14,07,-1.40
2008,12,23,14,08,-1.40
2008,12,23,14,09,-1.40
2008,12,23,14,10,-1.40
2008,12,23,14,11,-1.50
2008,12,23,14,12,-1.50
2008,12,23,14,13,-1.50
2008,12,23,14,14,-1.50
2008,12,23,14,15,-1.50
2008,12,23,14,16,-1.50
2008,12,23,14,17,-1.50
2008,12,23,14,18,-1.50
2008,12,23,14,19,-1.50
2008,12,23,14,20,-1.50
2008,12,23,14,21,-1.50
2008,12,23,14,22,-1.50
2008,12,23,14,23,-1.50
2008,12,23,14,24,-1.50
2008,12,23,14,25,-1.50
2008,12,23,14,26,-1.50
2008,12,23,14,27,-1.50
2008,12,23,14,28,-1.40
2008,12,23,14,29,-1.40
2008,12,23,14,30,-1.40
2008,12,23,14,31,-1.40
2008,12,23,14,32,-1.40
2008,12,23,14,33,-1.40
2008,12,23,14,34,-1.40
2008,12,23,14,35,-1.40
2008,12,23,14,36,-1.40
2008,12,23,14,37,-1.40
2008,12,23,14,38,-1.30
2008,12,23,14,39,-1.30
2008,12,23,14,40,-1.30
2008,12,23,14,41,-1.30
2008,12,23,14,42,-1.30
2008,12,23,14,43,-1.30
2008,12,23,14,44,-1.30
2008,12,23,14,45,-1.30
2008,12,23,14,46,-1.30
2008,12,23,14,47,-1.30
2008,12,23,14,48,-1.30
2008,12,23,14,49,-1.30
2008,12,23,14,50,-1.20
2008,12,23,14,51,-1.20
2008,12,23,14,52,-1.20
2008,12,23,14,53,-1.20
2008,12,23,14,54,-1.20
2008,12,23,14,55,-1.20
2008,12,23,14,56,-1.20
2008,12,23,14,57,-1.20
2008,12,23,14,58,-1.20
2008,12,23,14,59,-1.20
2008,12,23,15,00,-1.20
2008,12,23,15,01,-1.20
2008,12,23,15,02,-1.20
2008,12,23,15,03,-1.20
2008,12,23,15,04,-1.20
2008,12,23,15,05,-1.20
2008,12,23,15,06,-1.20
2008,12,23,15,07,-1.20
2008,12,23,15,08,-1.20
2008,12,23,15,09,-1.20
2008,12,23,15,10,-1.20
2008,12,23,15,11,-1.20
2008,12,23,15,12,-1.30
2008,12,23,15,13,-1.30
2008,12,23,15,14,-1.30
2008,12,23,15,15,-1.30
2008,12,23,15,16,-1.30
2008,12,23,15,17,-1.30
2008,12,23,15,18,-1.30
2008,12,23,15,19,-1.30
2008,12,23,15,20,-1.30
2008,12,23,15,21,-1.40
2008,12,23,15,22,-1.40
2008,12,23,15,23,-1.40
2008,12,23,15,24,-1.40
2008,12,23,15,25,-1.40
2008,12,23,15,26,-1.40
2008,12,23,15,27,-1.40
2008,12,23,15,28,-1.30
2008,12,23,15,29,-1.30
2008,12,23,15,30,-1.30
2008,12,23,15,31,-1.30
2008,12,23,15,32,-1.30
2008,12,23,15,33,-1.30
2008,12,23,15,34,-1.30
2008,12,23,15,35,-1.30
2008,12,23,15,36,-1.30
2008,12,23,15,37,-1.30
2008,12,23,15,38,-1.30
2008,12,23,15,39,-1.30
2008,12,23,15,40,-1.30
2008,12,23,15,41,-1.30
2008,12,23,15,42,-1.30
2008,12,23,15,43,-1.30
2008,12,23,15,44,-1.30
2008,12,23,15,45,-1.30
2008,12,23,15,46,-1.30
2008,12,23,15,47,-1.30
2008,12,23,15,48,-1.30
2008,12,23,15,49,-1.40
2008,12,23,15,50,-1.40
2008,12,23,15,51,-1.40
2008,12,23,15,52,-1.40
2008,12,23,15,53,-1.40
2008,12,23,15,54,-1.40
2008,12,23,15,55,-1.40
2008,12,23,15,56,-1.40
2008,12,23,15,57,-1.40
2008,12,23,15,58,-1.40
2008,12,23,15,59,-1.40
2008,12,23,16,00,-1.40
2008,12,23,16,01,-1.40
2008,12,23,16,02,-1.40
2008,12,23,16,03,-1.40
2008,12,23,16,04,-1.40
2008,12,23,16,05,-1.40
2008,12,23,16,06,-1.40
2008,12,23,16,07,-1.40
2008,12,23,16,08,-1.40
2008,12,23,16,09,-1.50
2008,12,23,16,10,-1.50
2008,12,23,16,11,-1.50
2008,12,23,16,12,-1.50
2008,12,23,16,13,-1.50
2008,12,23,16,14,-1.50
2008,12,23,16,15,-1.50
2008,12,23,16,16,-1.50
2008,12,23,16,17,-1.50
2008,12,23,16,18,-1.50
2008,12,23,16,19,-1.50
2008,12,23,16,20,-1.50
2008,12,23,16,21,-1.60
2008,12,23,16,22,-1.60
2008,12,23,16,23,-1.60
2008,12,23,16,24,-1.60
2008,12,23,16,25,-1.60
2008,12,23,16,26,-1.60
2008,12,23,16,27,-1.60
2008,12,23,16,28,-1.60
2008,12,23,16,29,-1.60
2008,12,23,16,30,-1.60
2008,12,23,16,31,-1.60
2008,12,23,16,32,-1.60
2008,12,23,16,33,-1.60
2008,12,23,16,34,-1.60
2008,12,23,16,35,-1.60
2008,12,23,16,36,-1.60
2008,12,23,16,37,-1.60
2008,12,23,16,38,-1.70
2008,12,23,16,39,-1.70
2008,12,23,16,40,-1.70
2008,12,23,16,41,-1.70
2008,12,23,16,42,-1.70
2008,12,23,16,43,-1.70
2008,12,23,16,44,-1.70
2008,12,23,16,45,-1.70
2008,12,23,16,46,-1.70
2008,12,23,16,47,-1.70
2008,12,23,16,48,-1.70
2008,12,23,16,49,-1.70
2008,12,23,16,50,-1.70
2008,12,23,16,51,-1.70
2008,12,23,16,52,-1.70
2008,12,23,16,53,-1.70
2008,12,23,16,54,-1.70
2008,12,23,16,55,-1.70
2008,12,23,16,56,-1.70
2008,12,23,16,57,-1.70
2008,12,23,16,58,-1.80
2008,12,23,16,59,-1.80
2008,12,23,17,00,-1.80
2008,12,23,17,01,-1.80
2008,12,23,17,02,-1.80
2008,12,23,17,03,-1.80
2008,12,23,17,04,-1.80
2008,12,23,17,05,-1.80
2008,12,23,17,06,-1.80
2008,12,23,17,07,-1.80
2008,12,23,17,08,-1.80
2008,12,23,17,09,-1.80
2008,12,23,17,10,-1.80
2008,12,23,17,11,-1.80
2008,12,23,17,12,-1.80
2008,12,23,17,13,-1.80
2008,12,23,17,14,-1.80
2008,12,23,17,15,-1.80
2008,12,23,17,16,-1.80
2008,12,23,17,17,-1.80
2008,12,23,17,18,-1.80
2008,12,23,17,19,-1.80
2008,12,23,17,20,-1.80
2008,12,23,17,21,-1.90
2008,12,23,17,22,-1.90
2008,12,23,17,23,-1.90